OBJECT AE, 68444

Orbit data source: Space-Track

You're viewing an Uncataloged Satellite

Recently launched and/or uncataloged satellites may have evolving metadata. Metadata may include but not limited to: Owner, Maufacturer, Bus, Motor, and Mission.

OBJECT AE, 68444 is a satellite in SSO that was launched on Mon, 30 Mar 2026 UTC via an FALCON 9 launch vehicle from the Air Force Western Test Range (AFWTR). Unknown objects in Earth's orbit typically refer to objects detected orbiting the Earth but have not yet been identified or cataloged. These objects could be anything from previously untracked satellites, spent rocket stages, debris from satellite collisions, or even natural meteoroids temporarily captured by Earth's gravity.

Loading next visibility...
Identifier
68444, 2026-067AE
Orbit
SSO
Country
Flag of TBDTBD
Related business
None
Manufacturer
Unknown
Mission
Operational spacecraft
Bus & Motor
Unknown
Mass
Unknown
Launch date (UTC)
2026-03-30 (1 month ago)
Launch vehicle
FALCON 9
Launch site
Air Force Western Test Range (AFWTR)
Object type
Unknown
Shape & HBR
Unknown shape, 1.1 m
Radar Cross Section
RCS unknown

Expand to show TLE details & history
Last TLE update: 9 hours ago

TLE from 9 hours ago
0 OBJECT AE
1 68444U 26067AE  26127.13596213  .00005052  00000-0  24888-3 0  9990
2 68444  97.4556  86.2374 0003445 109.9828 250.1777 15.18403485  5718
Epoch: 2026-05-07T03:15Z
TLE epoch observation values (Epoch: 2026-05-07T03:15:47.128Z)
Latitude
-0.00003°
Longitude
172.3046°
Altitude
514.558 km
Speed
7.606 km/s
True Right ascension
05h 44m 56s
True Declination
0° 00' 00"
Sunlit
Object was in daylight at epoch
Visualization orbit readout
Latitude
Unknown
Longitude
Unknown
Altitude
Unknown
Speed
Unknown
Apparent Right ascension
Unknown
Apparent Declination
Unknown
Sunlit
N/A
Visualization observer readout
Local Sidereal Time
20:05:07
Azimuth
Unknown
Elevation
Unknown
Doppler factor
Unknown
Orbital elements
Apogee altitude
510.007 km
Perigee altitude
505.263 km
Semi-major axis
6,885.772 km
Eccentricity
0.00034
Inclination
97.4556°
RAAN
86.2374°
Arg. of periapsis
109.9828°
True anomaly
250.14057°
Mean anomaly
250.1777°
Eccentric anomaly
250.15913°
Mean motion
3.79852 °/min
Orbital period
94.77 mins
BSTAR
0.00024888
Loading maneuver chart data...
Computing Atmospheric mass density...
Loading historical data...
Loading historical data...
Loading historical data...
Loading historical data...
Loading historical data...
Loading historical data...
Loading historical data...

Documentation

Showing up to 5 results
|